#timestamp,LO_Frequency,Hit,StdDev 
1549436415.0,286047003.8,N
1549436415.9,286047003.8,N
1549436435.8,286047004.0,N
1549436455.6,286047004.0,N
1549436475.4,286047003.9,N
1549436495.3,286047005.5,Y
1549436515.1,286047002.8,P
1549436535.9,286047000.8,N
1549436555.7,286046998.5,N
1549436575.5,286046999.1,N
1549436595.4,286046995.4,N
1549436615.2,286046993.5,N
1549436635.0,286046993.3,N
1549436635.9,286046993.3,N
1549436655.8,286046990.1,N
1549436675.6,286046992.3,N
1549436695.5,286046990.9,N
1549436715.3,286046988.8,N
1549436735.1,286046989.6,N
1549436755.9,286046989.5,N
1549436775.7,286046988.7,N
1549436795.6,286046988.5,N
1549436815.4,286046991.1,N
1549436835.2,286046990.3,N
1549436855.1,286046990.8,N
1549436856.0,286046990.8,N
1549436875.8,286046992.3,N
1549436895.6,286046994.2,N
1549436915.5,286046994.1,N
1549436935.3,286046993.3,N
1549436955.2,286046995.8,N
1549436975.9,286046996.4,N
1549436995.7,286046997.5,N
1549437015.6,286046997.4,N
1549437035.4,286046996.9,N
1549437055.2,286046997.8,N
1549437075.1,286046997.2,N
1549437076.0,286046997.2,N
1549437095.8,286046993.3,N
1549437115.7,286046993.8,N
1549437135.5,286046993.8,N
1549437155.3,286046993.6,N
1549437175.2,286046994.2,N
1549437195.0,286046996.4,N
1549437195.9,286046996.4,N
1549437215.7,286046993.3,N
1549437235.6,286046995.3,N
1549437255.4,286046993.3,N
1549437275.3,286046996.1,N
1549437295.1,286046995.0,N
1549437296.0,286046995.0,N
1549437315.8,286046995.6,N
1549437335.7,286046999.5,N
1549437355.5,286046997.1,N
1549437375.3,286046999.1,N
1549437395.2,286046996.6,N
1549437415.0,286046996.5,N
1549437415.9,286046996.5,N
1549437435.8,286047001.1,N
1549437455.6,286047004.3,N
1549437475.4,286047001.8,N
1549437495.3,286047002.5,N
1549437515.1,286047002.6,N
1549437535.8,286047000.7,N
1549437555.7,286046999.2,N
1549437575.5,286046998.3,N
1549437595.4,286046998.6,N
1549437615.2,286047001.0,N
1549437635.0,286046999.9,N
1549437635.9,286046999.9,N
1549437655.8,286046999.7,N
1549437675.6,286047002.5,N
1549437695.4,286047002.7,N
1549437715.3,286046998.1,N
1549437735.1,286046997.1,N
1549437755.9,286046997.3,N
1549437775.7,286046997.3,N
1549437795.5,286046997.3,N
1549437815.4,286046997.3,N
1549437835.2,286046997.2,N
1549437855.0,286046995.1,N
1549437855.9,286046995.1,N
1549437875.8,286046994.9,N
1549437895.6,286046997.3,N
1549437915.5,286046999.0,N
1549437935.3,286046999.8,N
1549437955.1,286047005.9,N
1549437975.9,286047004.6,N
1549437995.7,286047009.6,Y
1549438015.6,286047009.5,P
1549438035.4,286047008.4,N
1549438055.2,286047006.6,N
1549438075.1,286047009.0,N
1549438076.0,286047009.0,N
1549438095.8,286047009.1,N
1549438115.6,286047004.5,N
1549438135.5,286047006.0,N
1549438155.3,286047004.6,N
1549438175.2,286047006.2,N
1549438195.9,286047007.4,N
1549438215.7,286047008.9,Y
1549438235.6,286047003.5,P
1549438255.4,286046999.9,N
1549438275.3,286047000.7,N
1549438295.1,286046998.5,N
1549438296.0,286046998.5,N
1549438315.8,286046999.0,N
1549438335.7,286046998.5,N
1549438355.5,286046997.1,N
1549438375.3,286047000.5,N
1549438395.2,286046998.4,N
1549438415.0,286047002.8,N
1549438415.9,286047002.8,N
1549438435.8,286047000.3,N
1549438455.6,286047001.5,N
1549438475.4,286047004.2,N
1549438495.3,286047004.0,N
1549438515.1,286046999.7,N
1549438535.8,286047002.8,N
1549438555.7,286047001.0,N
1549438575.5,286046997.3,N
1549438595.4,286046997.9,N
1549438615.2,286046998.5,N
1549438635.0,286046998.7,N
1549438635.9,286046998.7,N
1549438655.8,286046998.5,N
1549438675.6,286046998.3,N
1549438695.4,286047002.3,N
1549438715.3,286047001.6,N
1549438735.1,286047000.9,N
1549438755.9,286047000.9,N
1549438775.7,286046998.7,N
1549438795.5,286046999.3,N
1549438815.4,286046997.2,N
1549438835.2,286046997.2,N
1549438855.0,286047002.7,N
1549438855.9,286047002.7,N
1549438875.8,286047006.0,N
1549438895.6,286047003.0,N
1549438915.4,286047004.2,N
1549438935.3,286047002.0,N
1549438955.1,286047001.5,N
1549438975.9,286046999.8,N
1549438995.7,286047000.3,N
1549439015.5,286046999.6,N
1549439035.4,286046999.2,N
1549439055.2,286046996.3,N
1549439075.1,286046992.8,Y
1549439076.0,286046992.8,P
1549439095.8,286046990.4,N
1549439115.6,286046991.2,N
1549439135.5,286046987.1,Y
1549439155.3,286046999.5,P
1549439175.2,286046999.5,N
1549439195.9,286046999.1,N
1549439215.7,286046996.6,N
1549439235.6,286046996.5,N
1549439255.4,286046999.2,N
1549439275.2,286046997.1,N
1549439295.1,286046996.8,N
1549439296.0,286046996.8,N
1549439315.8,286046996.7,N
1549439335.7,286046996.2,N
1549439355.5,286046993.8,Y
1549439375.3,286046996.5,P
1549439395.2,286046995.5,P
1549439415.0,286046994.6,P
1549439415.9,286046994.6,Y
1549439435.8,286046996.7,P
1549439455.6,286047000.8,N
1549439475.4,286046998.3,N
1549439495.3,286046998.2,N
1549439515.1,286046999.9,N
1549439535.8,286047000.1,N
1549439555.7,286047000.6,N
1549439575.5,286046998.5,N
1549439595.4,286046997.3,N
1549439615.2,286046999.3,N
1549439635.0,286046997.2,N
1549439635.9,286046997.2,N
1549439655.8,286046996.5,N
1549439675.6,286046997.2,N
1549439695.4,286046997.8,N
1549439715.3,286046996.7,N
1549439735.1,286046999.2,N
1549439755.9,286046999.6,N
1549439775.7,286046999.5,N
1549439795.5,286047001.1,N
1549439815.4,286047000.1,N
1549439835.2,286047000.5,N
1549439855.0,286047004.4,N
1549439855.9,286047004.4,N
1549439875.8,286047004.0,N
1549439895.6,286047004.2,N
1549439915.4,286047003.4,N
1549439935.3,286047003.3,N
1549439955.1,286047003.4,N
1549439975.9,286047001.9,N
1549439995.7,286047004.2,N
